Regional Weather Roundup
Issued by NWS

Home | Current Version | Previous Version | Graphics & Text | Print | Product List | Glossary On
Versions: 1 2 3 4 5 6 7 8 9 10 11 12 13 14 15 16 17 18 19 20 21 22 23 24 25 26 27 28 29 30 31 32 33 34 35 36 37 38 39 40 41 42 43 44 45 46 47 48 49 50
000
ASUS43 KLOT 282313
RWRIL

ILLINOIS REGIONAL WEATHER ROUNDUP
NATIONAL WEATHER SERVICE CHICAGO/ROMEOVILLE IL
600 PM CDT FRI AUG 28 2015

NOTE: "FAIR" INDICATES FEW OR NO CLOUDS BELOW 12,000 FEET WITH NO
SIGNIFICANT WEATHER AND/OR OBSTRUCTIONS TO VISIBILITY.

* THESE STATIONS ARE NOT UNDER NWS QUALITY CONTROL. THEY ALSO MAY NOT
  REPORT WEATHER SUCH AS PRECIPITATION OR FOG.

ILZ001-002-007-009-015-016-024-290000-
NORTHWEST ILLINOIS

CITY           SKY/WX    TMP DP  RH WIND       PRES   REMARKS
MOLINE         CLOUDY    72  64  76 SE10      29.97
STERLING*      CLOUDY    70  64  83 E8        30.02F
SAVANNA*       CLOUDY    68  62  80 E12       29.99F
$$

ILZ003-004-008-010-011-017-018-290000-
NORTH CENTRAL ILLINOIS

CITY           SKY/WX    TMP DP  RH WIND       PRES   REMARKS
ROCKFORD       CLOUDY    68  62  81 E7        30.08S
FREEPORT*      CLOUDY    66  63  89 E7        30.07F
ROCHELLE*      CLOUDY    68  63  84 E3        30.07S
DE KALB*       CLOUDY    67  63  87 CALM      30.08S
PERU*          CLOUDY    73  61  67 SE7       30.05R
$$

ILZ005-006-012>014-019>023-290000-
NORTHEAST ILLINOIS

CITY           SKY/WX    TMP DP  RH WIND       PRES   REMARKS
CHICAGO-OHARE  CLOUDY    71  61  70 SE6       30.07S
CHICAGO-MIDWAY CLOUDY    75  60  59 SE7       30.07S
AURORA         CLOUDY    70  64  81 E7        30.07F
LANSING*       CLOUDY    73  62  68 E3        30.07F
JOLIET*        CLOUDY    73  65  76 E3        30.07S
WAUKEGAN       LGT RAIN  68  62  81 E3        30.07F
DUPAGE AIRPORT CLOUDY    70  61  73 E6        30.06F
KANKAKEE*      CLOUDY    74  64  71 CALM      30.07F
WHEELING       CLOUDY    72  59  63 SE3       30.08F
MORRIS*        CLOUDY    70  65  83 E6        30.05F
ROMEOVILLE*    CLOUDY    71  61  71 E3        30.07S
NORTHERLY ISL    N/A     68  62  81 CALM        N/A
$$

LMZ740>746-290000-
SOUTHERN LAKE MICHIGAN

STATION/POSITION SKY/WX   TEMP    WIND        PRES    VSBY  WAVE
                          AIR SEA DIR/SP/G                  HT/PER
                          (F)     (DEG/KT/KT) (MB)    (MI)  (FT/S)
SOUTHERN BUOY              69 69  160/  4/  4 1019.0R
WILMETTE HARBOR            64 60  260/  4/  4   N/A           0
HARRISON CRIB              70     100/  7/  8   N/A
BURNHAM HARBOR             68      CALM  /  4   N/A
BURNS HARBOR               72      40/  6/  6 1019.3S
MICHIGAN CITY              70      20/  3/  4   N/A
MICHIGAN CITY 6N           71 71   70/  6/  6   N/A           0
ST. JOSEPH                 71 72   90/  4/  4   N/A           0
$$

ILZ025>027-034>036-040-047-049-050-058-095>099-290000-
WEST-CENTRAL ILLINOIS

CITY           SKY/WX    TMP DP  RH WIND       PRES   REMARKS
QUINCY         CLOUDY    75  62  64 SE9       29.97F
GALESBURG*     CLOUDY    71  63  77 SE5       29.99F
MACOMB*        CLOUDY    73  62  68 SE9       30.01S
JACKSONVILLE*  CLOUDY    77  62  59 SE10      30.02S
PITTSFIELD*    CLOUDY    76  62  62 SE7       30.01F
$$

ILZ028>032-037-038-041>044-048-051>054-059>061-290000-
CENTRAL ILLINOIS

CITY           SKY/WX    TMP DP  RH WIND       PRES   REMARKS
PONTIAC        CLOUDY    73  67  79 SE7       30.05F
BLOOMINGTON    CLOUDY    75  61  62 S9        30.06S
DECATUR        CLOUDY    77  58  51 SE10      30.05F
PEORIA         CLOUDY    77  59  53 S7        30.02S
LACON*         CLOUDY    72  64  75 SE6       30.02S
LINCOLN*       CLOUDY    78  58  51 S9        30.03S
SPRINGFIELD    CLOUDY    78  59  51 S10       30.03F
TAYLORVILLE    CLOUDY    73  61  64 SE8       30.05S
$$

ILZ033-039-045-046-055>057-062-063-290000-
EAST-CENTRAL ILLINOIS

CITY           SKY/WX    TMP DP  RH WIND       PRES   REMARKS
CHAMPAIGN      CLOUDY    77  58  51 SE6       30.07S
RANTOUL*       CLOUDY    77  62  60 SE6       30.07S
MATTOON        PTSUNNY   76  55  48 S7        30.06F
PARIS*         PTSUNNY   76  59  55 E6        30.08S
$$

ILZ079-100>102-290000-
SOUTHWEST ILLINOIS

CITY           SKY/WX    TMP DP  RH WIND       PRES   REMARKS
BELLEVILLE     PTSUNNY   78  64  60 E5        30.02F HX  80
CAHOKIA*       PTSUNNY   78  61  55 SE8       30.02F HX  80
SPARTA*        MOSUNNY   77  62  60 SE3       30.04F
$$

ILZ064>066-069>071-074>076-080>082-084>086-088>090-092>094-290000-
SOUTH-CENTRAL ILLINOIS

CITY           SKY/WX    TMP DP  RH WIND       PRES   REMARKS
CARBONDALE     SUNNY     79  60  52 S8        30.03F HX  80
CAIRO*         MOSUNNY   83  66  57 CALM      30.02F HX  85
EFFINGHAM*     MOSUNNY   79  54  41 E6        30.07S
MARION         MOSUNNY   81  63  54 SE7       30.05F HX  82
MT. VERNON     SUNNY     81  57  44 SE5       30.06S HX  81
SALEM*         MOSUNNY   80  57  46 SE6       30.05S HX  80
METROPOLIS*    PTSUNNY   82  68  63 CALM      30.03F HX  85
$$

ILZ067-068-072-073-078-083-087-091-290000-
SOUTHEAST ILLINOIS

CITY           SKY/WX    TMP DP  RH WIND       PRES   REMARKS
LAWRENCEVILLE  MOSUNNY   79  61  53 SE6       30.07S HX  80
FLORA*         MOSUNNY   79  56  45 SE5       30.06S HX  80
FAIRFIELD*     SUNNY     79  60  52 S5        30.04F HX  80
HARRISBURG*    MOSUNNY   81  64  55 S3        30.04F HX  82
ROBINSON*      MOSUNNY   78  57  49 S6        30.08S
CARMI*         MOSUNNY   79  64  59 S5        30.04F HX  81
$$

ABBREVIATIONS USED IN REMARKS
   TC - TEMPERATURE IN CELSIUS
  WCI - WIND CHILL INDEX
   HX - HEAT INDEX
  VSB - VISIBILITY
$$



USA.gov is the U.S. government's official web portal to all federal, state and local government web resources and services.